Theta_e
312 312 311 310 309 309 309 309 309 310 310 310 310 310 311 311 312 313 313 317 320 327 325 323 322 323 326 325 334 335 342 345 344 343 342 343 347 346 343 342 343 341 341 339 338
312 312 312 311 309 309 309 310 310 310 310 311 311 311 311 312 317 316 316 317 317 322 325 323 324 324 324 333 335 337 341 344 340 338 340 342 346 347 346 345 342 337 339 340 340
313 312 313 313 310 309 310 310 310 311 311 311 311 311 312 314 324 319 318 317 318 319 324 326 327 326 330 335 336 339 339 342 341 341 338 342 345 344 346 347 341 339 334 338 328
313 313 313 313 311 309 310 310 311 311 312 312 312 312 313 324 322 327 323 323 322 323 323 324 324 329 336 338 338 342 340 339 340 342 342 342 345 347 347 345 338 330 330 330 325
313 313 313 313 311 309 310 310 311 312 312 312 313 313 319 326 321 327 326 320 325 323 324 324 326 332 336 337 338 342 340 338 340 340 342 345 347 347 345 335 328 326 325 324 324
314 314 313 314 312 310 310 311 312 312 313 313 313 313 323 320 324 327 325 322 323 322 324 325 329 332 335 337 337 336 339 338 336 340 345 347 346 345 344 330 329 326 325 324 325
315 314 313 314 313 310 310 311 312 313 314 315 314 315 322 320 325 325 324 323 322 322 320 324 325 333 333 337 337 336 341 338 336 338 346 344 348 350 342 333 332 329 326 325 325
316 315 314 314 313 311 311 311 313 314 316 316 315 320 319 323 324 324 322 321 320 320 323 326 331 330 332 333 334 336 336 337 335 336 345 343 349 346 339 337 334 330 328 326 325
317 316 315 315 314 312 311 312 313 316 315 315 317 324 319 323 323 323 323 322 324 324 324 329 332 332 332 334 333 336 335 340 341 338 342 344 350 346 339 339 337 333 330 330 326
317 317 316 315 314 312 311 313 316 319 319 317 321 319 318 322 326 326 326 324 325 323 322 325 328 329 330 327 331 333 342 340 343 339 340 345 349 344 341 340 339 335 331 331 329
317 318 317 315 314 312 312 315 317 319 326 319 320 317 320 321 323 325 325 325 325 324 325 323 324 326 326 330 329 334 340 339 338 337 338 343 350 346 343 340 339 337 335 333 332
318 318 317 316 314 312 312 313 318 321 319 321 323 322 323 324 324 322 324 325 324 325 324 322 323 323 324 327 332 337 339 339 337 339 340 345 350 347 345 343 340 338 337 335 333
318 319 318 316 315 312 312 315 318 318 319 321 324 322 321 324 324 322 323 323 324 325 324 323 324 324 324 332 334 335 338 337 336 344 345 346 348 345 343 339 339 340 338 335 333
319 321 318 316 315 315 316 321 317 317 317 320 324 321 321 322 323 323 324 324 323 325 323 322 322 323 322 332 331 333 330 333 335 337 341 342 346 346 341 340 340 339 337 336 333
319 322 320 317 314 312 318 316 320 318 321 322 322 323 319 321 322 324 324 323 325 325 323 324 322 323 332 332 330 330 332 331 331 329 331 344 342 339 337 339 337 334 334 330 329
321 323 321 317 315 314 317 316 319 318 323 324 327 325 324 321 322 323 325 323 323 324 322 322 320 323 327 331 330 332 333 328 322 321 324 335 340 338 337 338 337 327 330 327 326
323 324 322 318 312 317 313 319 323 320 321 331 331 330 330 325 323 323 323 324 324 324 323 322 322 324 332 332 330 330 328 332 331 328 326 338 339 335 335 336 331 326 326 323 325
325 323 318 315 313 313 319 319 326 325 330 330 331 331 334 329 325 324 323 327 331 321 322 324 327 332 332 331 333 333 327 332 332 327 324 336 341 336 334 332 327 324 322 321 323
325 320 316 314 313 313 317 321 322 329 333 334 333 337 335 336 335 332 333 335 333 330 329 332 333 331 333 333 333 334 329 325 322 323 324 334 336 333 333 333 330 324 321 321 320
324 318 317 317 313 321 318 321 324 333 333 333 337 337 338 337 335 336 335 334 334 333 329 332 334 334 331 330 329 331 326 329 323 331 331 337 339 337 334 333 330 322 321 319 315
326 316 321 315 321 317 319 321 327 333 334 335 335 337 338 336 337 337 334 335 333 334 331 330 331 333 328 327 329 325 324 323 321 325 329 332 333 330 330 330 325 321 319 318 310
323 321 323 319 317 315 320 322 325 333 332 336 336 338 336 337 337 336 337 335 334 335 336 331 328 334 331 325 326 324 325 323 326 325 323 324 327 325 324 324 321 320 319 317 309
322 323 322 320 319 319 319 323 324 332 334 336 338 336 337 336 335 336 338 335 333 334 328 330 326 329 328 319 323 330 327 322 320 320 324 327 328 325 323 321 320 320 319 317 314
321 332 331 314 314 319 321 322 324 331 334 334 336 334 335 335 334 336 337 337 335 332 335 330 329 327 329 325 323 329 326 322 320 321 322 326 328 328 325 323 320 319 318 317 310
324 328 333 335 330 325 320 328 332 335 333 332 333 335 335 336 338 336 337 335 334 332 332 326 327 331 332 331 332 331 328 324 323 321 323 321 331 329 325 323 321 320 317 311 309
334 338 335 333 330 332 332 336 337 334 335 335 334 337 337 336 335 333 336 334 334 331 332 327 328 333 334 330 333 330 333 324 324 329 331 332 332 326 324 319 320 319 310 312 314
328 335 332 331 330 333 337 338 338 336 333 335 335 335 333 334 330 326 330 331 332 332 332 331 332 332 334 333 334 332 335 330 327 328 327 329 326 319 315 315 315 309 312 314 314
Wind_Speed
20 18 14 11 8 5 5 5 4 4 4 4 5 6 6 7 8 5 6 5 9 11 10 13 9 6 3 3 4 4 3 0 2 2 3 6 5 2 5 7 2 2 5 8 28
20 18 16 12 9 5 5 4 4 4 4 4 4 5 7 8 3 8 5 12 12 11 12 12 4 8 1 2 1 4 3 4 3 3 5 6 4 8 4 3 3 3 8 24 25
20 18 16 13 9 5 4 4 4 4 4 4 4 5 7 4 1 7 14 14 11 10 5 7 7 5 3 1 2 3 4 2 3 8 9 6 4 4 11 4 6 10 9 18 21
21 19 16 14 9 6 5 4 4 4 4 4 5 6 6 2 5 2 8 14 11 18 9 6 4 5 4 4 3 4 1 4 3 3 5 8 5 4 1 3 9 7 12 12 13
21 19 17 14 10 6 5 4 4 5 5 5 5 6 1 1 7 3 6 19 15 18 14 6 6 5 6 6 4 4 2 1 3 5 5 7 4 5 4 10 14 12 8 8 10
21 19 17 14 10 6 5 5 4 6 7 6 5 5 1 2 2 3 10 17 13 18 14 8 7 4 6 4 1 6 7 2 3 2 3 7 4 4 2 10 12 11 8 7 12
21 19 17 14 10 6 5 5 5 6 8 6 4 1 1 7 3 2 12 12 15 11 7 17 6 6 3 5 3 2 3 4 5 7 6 9 1 3 10 7 6 8 8 6 12
21 19 17 14 10 7 5 6 5 7 8 5 3 1 5 3 3 6 11 9 11 12 14 8 10 8 3 6 5 5 3 4 6 8 6 6 3 6 11 14 12 8 7 6 6
22 20 17 14 11 8 6 5 5 5 3 2 2 1 7 5 5 10 14 6 4 11 13 4 7 5 2 5 4 3 4 2 4 9 6 6 4 13 9 13 12 10 7 7 7
22 20 18 15 11 8 6 5 3 1 2 2 1 2 4 5 4 5 13 15 4 4 4 5 3 4 3 3 6 6 4 5 6 6 1 5 5 16 12 9 12 10 7 8 9
22 20 18 14 11 8 3 0 3 1 3 7 5 4 4 6 3 5 8 6 4 3 2 2 4 4 12 11 2 5 4 4 2 6 7 7 9 17 15 11 8 10 12 10 13
24 21 17 13 11 7 4 3 1 2 7 10 9 5 9 1 3 7 2 4 4 5 2 5 4 11 4 4 7 7 5 7 4 3 4 6 4 10 13 11 10 10 9 11 10
25 21 17 13 12 6 1 4 3 15 1 7 5 5 5 9 6 9 8 3 5 4 5 6 11 4 3 4 9 3 6 6 7 4 4 6 1 3 5 5 5 8 10 7 12
25 21 15 13 2 3 5 1 21 10 4 6 4 5 5 5 4 8 11 8 2 9 5 6 7 1 4 6 5 5 9 6 7 6 4 3 4 5 6 7 6 6 9 10 10
26 21 14 9 6 3 0 17 2 4 4 6 4 4 4 8 3 7 8 4 12 9 4 12 4 1 1 6 7 9 7 4 3 3 5 0 2 4 3 5 6 6 4 7 8
27 21 13 6 5 7 10 16 5 6 2 5 4 3 1 2 4 2 3 3 3 4 3 10 2 4 6 4 3 2 1 2 3 3 3 2 5 3 5 6 4 2 3 6 6
27 19 11 5 3 3 16 3 5 3 4 5 3 4 2 4 4 6 6 2 4 2 5 6 6 5 2 2 2 2 5 4 4 4 5 1 1 6 5 5 8 8 8 7 7
22 14 10 9 5 4 4 6 2 4 5 2 3 3 5 8 5 3 4 4 5 4 2 3 7 3 2 5 5 1 6 5 5 4 4 3 3 3 3 5 5 6 7 4 7
16 6 5 2 10 4 5 4 6 5 3 4 2 5 4 2 1 4 3 4 5 3 6 2 4 4 1 2 4 1 3 3 5 2 2 2 5 5 1 4 5 5 7 7 6
10 5 4 5 16 7 5 3 3 3 3 4 3 2 3 5 6 5 3 2 4 4 1 8 3 3 5 6 3 3 2 2 3 2 5 2 4 5 7 9 6 7 9 8 6
3 3 2 16 8 6 3 6 4 2 2 3 5 4 5 3 4 4 2 2 3 3 4 2 3 5 3 1 4 4 3 5 4 3 3 1 5 6 9 11 10 8 8 8 8
2 3 3 18 4 2 3 5 4 3 1 1 2 1 3 2 3 2 3 5 3 3 3 3 4 1 4 4 4 3 2 4 4 3 1 3 6 2 9 8 10 9 9 7 6
2 2 3 3 3 1 4 4 4 5 5 4 1 5 2 4 2 4 2 6 1 3 1 1 3 3 8 6 6 3 3 3 4 3 4 4 6 1 3 7 7 9 7 5 5
2 3 3 4 2 4 3 3 4 4 3 4 5 2 1 4 4 2 3 1 3 4 6 3 3 4 4 6 2 5 6 2 5 3 3 5 3 4 6 7 6 5 3 4 5
3 1 2 2 3 2 1 3 0 1 2 4 3 6 3 7 8 3 2 1 2 1 3 4 1 2 4 6 5 7 5 2 2 3 3 6 5 5 12 9 7 6 3 5 6
2 2 4 2 2 4 5 3 1 1 1 2 6 7 5 4 5 13 3 1 4 3 3 2 2 3 5 4 5 3 10 7 6 3 3 0 5 3 3 5 2 4 6 6 7
3 2 4 4 2 0 2 1 2 2 1 3 6 5 6 4 6 10 4 1 2 6 4 3 2 3 4 7 7 4 5 2 1 1 3 3 5 1 6 5 2 6 8 8 6
Wind_Direction
359 359 1 357 353 351 345 342 344 348 349 341 342 331 316 311 296 244 232 195 178 158 153 153 170 169 178 220 169 122 72 291 281 241 156 146 121 29 39 128 53 249 151 175 170
356 357 359 354 348 345 344 337 339 339 343 343 345 331 325 323 269 239 182 189 176 163 146 154 153 153 196 234 57 80 101 223 240 302 169 170 138 140 111 147 35 50 90 132 151
354 354 353 352 344 337 336 336 331 331 345 340 336 336 333 329 136 238 200 194 197 170 158 179 162 170 122 116 135 163 158 114 232 289 175 154 128 124 134 210 191 171 140 138 146
352 351 351 350 342 332 326 325 323 328 330 322 331 341 336 142 138 180 198 191 158 160 154 184 196 160 129 169 125 117 167 175 253 41 126 162 126 91 297 265 118 134 131 132 146
350 348 349 348 343 333 319 318 319 314 306 315 324 335 139 174 253 246 223 186 157 160 188 206 159 158 160 176 128 128 265 103 223 259 131 112 84 124 63 82 99 102 103 127 135
349 346 346 346 342 334 315 312 310 303 303 307 317 336 72 247 290 239 183 172 185 160 207 207 216 163 100 170 187 159 185 140 344 165 112 111 151 77 103 111 119 127 142 146 151
348 346 345 344 340 333 315 309 308 310 305 296 291 303 97 238 327 249 194 201 205 180 187 215 229 81 116 97 325 54 91 350 256 186 160 121 8 116 149 108 134 160 167 174 188
348 346 343 342 338 329 320 314 312 316 308 281 233 156 247 304 240 226 214 220 216 227 243 315 128 99 85 141 36 38 47 198 187 176 176 137 200 153 148 152 164 192 182 192 223
348 346 342 340 337 328 319 313 305 311 326 130 118 160 272 304 217 247 226 216 219 246 231 147 92 109 114 89 26 43 261 258 310 201 150 187 137 170 170 179 181 184 197 187 222
348 345 340 338 336 332 328 309 292 182 119 101 339 355 265 233 210 207 225 230 253 315 115 143 76 114 54 114 255 207 228 255 235 169 120 168 135 171 184 189 206 190 202 207 219
348 345 339 337 333 333 335 76 30 7 215 197 194 226 269 278 307 233 240 153 180 88 271 55 69 267 245 214 221 188 186 246 238 188 157 195 155 184 183 196 218 213 211 202 225
348 345 336 333 326 315 293 95 113 344 310 225 242 263 280 324 325 276 255 162 147 230 86 7 284 252 270 206 204 141 222 237 268 212 130 150 171 196 193 203 212 218 223 227 232
345 344 335 330 318 301 266 233 290 316 257 298 194 194 199 165 221 263 156 195 198 224 201 188 246 297 226 188 186 205 188 249 215 108 37 116 280 217 225 232 245 218 224 218 232
343 339 334 332 7 340 270 194 330 168 61 280 241 256 158 150 279 229 208 162 258 224 201 221 266 217 285 223 153 185 224 229 172 133 227 167 250 233 195 239 243 232 232 222 219
339 333 328 323 299 226 199 330 68 130 44 310 301 200 136 160 183 250 192 98 231 236 110 257 268 94 141 219 166 232 175 226 320 187 104 116 86 258 132 238 250 271 218 177 201
336 325 320 314 259 262 318 336 124 43 310 341 342 16 38 276 236 264 178 126 219 234 182 244 219 209 230 215 189 50 131 71 85 86 11 199 171 246 184 197 193 220 218 165 159
332 315 299 236 257 323 333 52 46 112 317 279 302 36 41 318 289 192 177 181 192 187 284 336 310 284 127 234 134 104 60 340 343 355 229 206 141 250 223 219 178 180 183 178 176
329 304 282 239 227 306 10 55 112 247 250 324 334 315 87 15 302 301 95 117 16 142 151 276 312 1 275 229 227 124 156 154 238 225 267 330 259 273 278 202 174 177 180 168 167
333 307 279 226 197 185 71 73 205 212 324 348 27 16 339 65 42 350 32 142 199 202 140 131 262 301 102 255 116 257 240 212 127 60 76 288 306 306 191 237 171 182 159 189 190
335 323 278 177 139 101 72 225 235 238 350 53 43 120 271 337 34 9 14 214 216 237 269 204 205 248 340 29 8 194 162 286 22 260 269 264 274 237 230 230 211 180 189 200 203
354 49 1 154 122 54 142 228 270 212 167 115 197 254 244 162 126 299 256 327 349 289 296 120 107 288 58 31 249 332 325 49 111 122 191 265 258 209 222 209 191 191 197 191 184
18 63 10 165 65 22 165 204 227 184 169 119 115 120 302 166 134 227 282 211 32 359 319 320 134 354 224 261 280 218 208 134 125 249 227 165 270 269 241 185 164 187 197 200 180
72 244 51 315 125 264 274 257 233 182 188 189 2 97 103 282 167 196 194 282 258 56 165 284 15 18 339 356 5 12 270 135 105 80 201 153 267 322 134 150 174 180 200 188 187
84 45 3 58 123 142 233 291 276 35 122 158 150 106 110 209 276 199 245 210 313 92 63 77 103 153 211 234 211 305 295 133 139 123 213 230 259 246 229 204 200 206 204 228 207
39 316 201 0 351 347 248 174 278 205 22 57 75 75 5 9 353 289 293 307 99 17 73 85 21 198 251 255 267 288 307 225 76 213 174 295 226 245 220 207 209 203 148 127 101
86 69 13 60 321 357 353 26 36 194 187 236 139 168 148 102 191 275 200 194 242 24 88 53 289 34 300 331 330 88 20 48 63 40 44 93 271 265 140 121 157 187 136 108 103
360 12 107 313 4 72 252 281 292 212 229 213 201 136 110 163 299 283 220 235 151 158 150 128 105 52 283 340 327 12 345 8 100 98 278 275 280 29 56 79 68 86 106 113 128